Regional Weather Roundup
Issued by NWS Albany, NY

Home | Current Version | Previous Version | Text Only | Print | Product List | Glossary On
Versions: 1 2 3 4 5 6 7 8 9 10 11 12 13 14 15 16 17 18 19 20 21 22 23 24 25 26 27 28 29 30 31 32 33 34 35 36 37 38 39 40 41 42 43 44 45 46 47 48 49 50
000
ASUS41 KALY 311410
RWRALY

NEW YORK STATE HOURLY WEATHER ROUNDUP
NATIONAL WEATHER SERVICE ALBANY NY
900 AM EST SAT JAN 31 2015

NOTE: "FAIR" INDICATES FEW OR NO CLOUDS BELOW 12,000 FEET WITH NO
SIGNIFICANT WEATHER AND/OR NO OBSTRUCTIONS TO VISIBILITY.

NYZ032-033-038>043-046>054-057>066-NYZ062>081-311500-
EAST


CITY           SKY/WX    TMP DP  RH WIND       PRES   REMARKS
ALBANY         SUNNY      2 -12  52 NW16G25   30.19S WCI -18
GLENS FALLS    SUNNY      2 -14  47 N7        30.18R WCI -11
POUGHKEEPSIE   SUNNY     10 -11  38 N13G21    30.13S WCI  -5
NEWBURGH       SUNNY      9  -6  52 W8        30.11R WCI  -4
MONTGOMERY     SUNNY     11  -8  42 NW21G30   30.10R WCI  -8
WHITE PLAINS   SUNNY     11  -7  44 NW25G31   30.04R WCI -10
ISLIP          SUNNY     14  -4  44 NW29G37   30.02R WCI  -7
NEW YORK CITY  MOSUNNY   15   0  51 NW24G36   30.12R WCI  -4
CENTRAL PARK   SUNNY     13  -5  44 NW17G30   30.12R WCI  -4
$$

NYZ005>009-017-018-044>046-055-056-311500-
CENTRAL


CITY           SKY/WX    TMP DP  RH WIND       PRES   REMARKS
FULTON         LGT SNOW  -1  -7  75 CALM      30.32R
SYRACUSE       MOSUNNY   -3  -9  75 W5        30.32R WCI -13
ROME           MOSUNNY   -7 -12  79 NW5       30.32R WCI -18
ELMIRA         SUNNY      8   2  76 W5        30.27R WCI   0
BINGHAMTON     SUNNY      4  -3  73 NW15G25   30.14R WCI -14
MONTICELLO     SUNNY      3  -6  66 NW17G28   30.07R WCI -17
$$

NYZ026>034-041>043-311500-
NORTH


CITY           SKY/WX    TMP DP  RH WIND       PRES   REMARKS
WATERTOWN        N/A    N/A N/A N/A MISG      30.34R
FORT DRUM      NOT AVBL
MASSENA        MOSUNNY   -9 -16  71 SW7       30.32R WCI -24
SARANAC LAKE   MOSUNNY  -12 -17  78 SW6       30.06S WCI -26
PLATTSBURGH    MOSUNNY    0 -16  46 CALM      30.21S
$$

NYZ001>004-010>016-019>021-311500-
WEST


CITY           SKY/WX    TMP DP  RH WIND       PRES   REMARKS
NIAGARA FALLS  FLURRIES  12   9  87 SW5       30.31S WCI   4
BUFFALO        FLURRIES  12   7  80 SW6       30.31R WCI   3
DUNKIRK        CLOUDY    14   7  73 SW10      30.33R WCI   1
JAMESTOWN      CLOUDY     9   3  78 SW8       30.22S WCI  -4
WELLSVILLE     LGT SNOW   9   3  77 NW12      30.18R WCI  -6
ROCHESTER      LGT SNOW  10   5  80 W6        30.33R WCI   0
PENN YAN       CLOUDY     9   1  70 NW6       30.27S WCI  -1
$$

             KEY
       WCI = WIND CHILL INDEX
       VSB = VISIBILITY
       HX  = HEAT INDEX
$$


USA.gov is the U.S. government's official web portal to all federal, state and local government web resources and services.